Chico, CA

7:06 AM PDT on June 20, 2018 (GMT -0700)
Chico Municipal

Weather History for KCIC - April, 2017

Change the Weather History Date:

Monday, April 24, 2017

  Actual Average (KOVE) Record (KOVE)
Temperature  
Mean Temperature 58 °F -  
Max Temperature 66 °F 68 °F 90 °F (2013)
Min Temperature 51 °F 45 °F 35 °F (1958)
Degree Days  
Heating Degree Days 6    
Growing Degree Days 8 (Base 50)    
Moisture  
Dew Point 51 °F    
Average Humidity 77    
Maximum Humidity 100    
Minimum Humidity 56    
Precipitation  
Precipitation 0.04 in - - ()
Sea Level Pressure  
Sea Level Pressure 29.95 in    
Wind  
Wind Speed 13 mph (SE)    
Max Wind Speed 21 mph    
Max Gust Speed 28 mph    
Visibility 10 miles    
Events Rain    
Averages and records for this station are not official NWS values.
T = Trace of Precipitation, MM = Missing Value Source: NWS Daily Summary

Daily Weather History Graph

Daily Weather History Graph

Search for Another Location

Airport or City:

Astronomy

Apr. 24, 2017 Rise Set
Actual Time 6:16 AM PDT 7:55 PM PDT
Civil Twilight 5:47 AM PDT 8:23 PM PDT
Nautical Twilight 5:13 AM PDT 8:58 PM PDT
Astronomical Twilight 4:36 AM PDT 9:35 PM PDT
Moon 5:27 AM PDT (4/24) 6:02 PM PDT (4/24)
Length of Visible Light 14h 36m
Length of Day
13h 38m
Waning Crescent, 4% of the Moon is Illuminated
Apr 24
Waning Crescent
Apr 26
New
May 2
First Quarter
May 10
Full
May 18
Last Quarter

Hourly Weather History & Observations

Time (PDT) Temp. Dew Point Humidity Pressure Visibility Wind Dir Wind Speed Gust Speed Precip Events Conditions
12:15 AM 59.0 °F 50.0 °F 72% 29.92 in 10.0 mi SE 16.1 mph 23.0 mph N/A   Overcast
12:35 AM 57.2 °F 51.8 °F 82% 29.92 in 10.0 mi SE 15.0 mph - N/A   Overcast
12:55 AM 57.2 °F 51.8 °F 82% 29.93 in 10.0 mi SE 12.7 mph - N/A   Mostly Cloudy
1:15 AM 55.4 °F 53.6 °F 94% 29.93 in 10.0 mi SE 11.5 mph - 0.01 in   Overcast
1:35 AM 55.4 °F 53.6 °F 94% 29.94 in 10.0 mi SE 12.7 mph - 0.01 in   Overcast
1:55 AM 55.4 °F 53.6 °F 94% 29.94 in 10.0 mi SE 13.8 mph - 0.03 in   Overcast
2:15 AM 53.6 °F 53.6 °F 100% 29.93 in 10.0 mi SE 15.0 mph 20.7 mph 0.01 in   Overcast
2:35 AM 53.6 °F 53.6 °F 100% 29.93 in 10.0 mi SE 16.1 mph 20.7 mph 0.01 in   Overcast
2:55 AM 53.6 °F 53.6 °F 100% 29.92 in 10.0 mi ESE 15.0 mph - 0.01 in   Overcast
3:15 AM 53.6 °F 53.6 °F 100% 29.92 in 10.0 mi ESE 12.7 mph - N/A   Overcast
3:35 AM 53.6 °F 53.6 °F 100% 29.92 in 10.0 mi SE 11.5 mph - N/A   Overcast
3:55 AM 53.6 °F 53.6 °F 100% 29.93 in 10.0 mi SSE 10.4 mph - N/A   Overcast
4:15 AM 53.6 °F 53.6 °F 100% 29.93 in 10.0 mi SSE 12.7 mph - N/A   Overcast
4:35 AM 53.6 °F 53.6 °F 100% 29.94 in 10.0 mi SE 15.0 mph - N/A   Overcast
4:55 AM 53.6 °F 51.8 °F 94% 29.93 in 10.0 mi SE 15.0 mph 23.0 mph N/A   Overcast
5:15 AM 51.8 °F 50.0 °F 94% 29.94 in 10.0 mi SE 15.0 mph 21.9 mph N/A   Overcast
5:35 AM 51.8 °F 50.0 °F 94% 29.94 in 10.0 mi SE 15.0 mph 19.6 mph N/A   Overcast
6:47 AM 51.8 °F 50.0 °F 94% 29.95 in 10.0 mi ESE 16.1 mph - N/A   Overcast
7:48 AM 53.6 °F 50.0 °F 88% 29.97 in 10.0 mi ESE 15.0 mph 23.0 mph N/A   Overcast
8:50 AM 53.6 °F 48.2 °F 82% 29.99 in 10.0 mi ESE 18.4 mph - N/A   Overcast
9:47 AM 55.4 °F 48.2 °F 77% 30.00 in 10.0 mi ESE 20.7 mph 26.5 mph N/A Rain Light Rain
10:47 AM 57.2 °F 46.4 °F 67% 30.00 in 10.0 mi SE 17.3 mph - N/A   Overcast
11:47 AM 59.0 °F 48.2 °F 67% 30.02 in 10.0 mi SE 19.6 mph 26.5 mph N/A Rain Light Rain
12:56 PM 62.6 °F 48.2 °F 59% 29.99 in 10.0 mi SSE 20.7 mph 27.6 mph N/A Rain Light Rain
1:50 PM 62.6 °F 48.2 °F 59% 29.98 in 10.0 mi ESE 19.6 mph 27.6 mph N/A   Mostly Cloudy
2:47 PM 64.4 °F 50.0 °F 59% 29.97 in 10.0 mi SE 17.3 mph 25.3 mph N/A   Mostly Cloudy
3:55 PM 64.4 °F 50.0 °F 59% 29.96 in 10.0 mi SE 12.7 mph 19.6 mph N/A   Mostly Cloudy
4:47 PM 66.2 °F 50.0 °F 56% 29.93 in 40.0 mi ESE 13.8 mph - N/A   Overcast
4:55 PM 66.2 °F 50.0 °F 56% 29.93 in 10.0 mi SE 17.3 mph 24.2 mph N/A   Clear
5:15 PM 66.2 °F 50.0 °F 56% 29.92 in 10.0 mi SE 19.6 mph - N/A   Partly Cloudy
5:35 PM 66.2 °F 50.0 °F 56% 29.92 in 10.0 mi SE 20.7 mph 24.2 mph N/A   Partly Cloudy
5:47 PM 64.4 °F 50.0 °F 59% 29.93 in 40.0 mi SE 17.3 mph 24.2 mph N/A   Overcast
5:55 PM 64.4 °F 51.8 °F 64% 29.93 in 10.0 mi SE 16.1 mph - N/A   Clear
6:15 PM 64.4 °F 53.6 °F 68% 29.93 in 10.0 mi SSE 12.7 mph 18.4 mph N/A   Clear
6:35 PM 62.6 °F 53.6 °F 72% 29.94 in 10.0 mi SE 11.5 mph 24.2 mph N/A   Clear
6:47 PM 62.6 °F 53.6 °F 72% 29.94 in 25.0 mi SE 11.5 mph - N/A   Overcast
6:55 PM 62.6 °F 53.6 °F 72% 29.94 in 10.0 mi SSE 11.5 mph 16.1 mph N/A   Partly Cloudy
7:15 PM 64.4 °F 51.8 °F 64% 29.93 in 10.0 mi ESE 12.7 mph 17.3 mph N/A   Clear
7:35 PM 62.6 °F 51.8 °F 68% 29.93 in 10.0 mi SE 9.2 mph - N/A   Clear
7:55 PM 62.6 °F 51.8 °F 68% 29.93 in 10.0 mi ESE 8.1 mph - N/A   Clear
8:15 PM 62.6 °F 51.8 °F 68% 29.94 in 10.0 mi ESE 3.5 mph - N/A   Clear
8:35 PM 60.8 °F 50.0 °F 68% 29.95 in 10.0 mi ESE 8.1 mph - N/A   Clear
8:55 PM 60.8 °F 50.0 °F 68% 29.95 in 10.0 mi Calm Calm - N/A   Clear
9:15 PM 59.0 °F 46.4 °F 63% 29.96 in 10.0 mi Calm Calm - N/A   Partly Cloudy
9:35 PM 59.0 °F 48.2 °F 67% 29.97 in 10.0 mi Calm Calm - N/A   Partly Cloudy
9:55 PM 59.0 °F 48.2 °F 67% 29.98 in 10.0 mi Calm Calm - N/A   Clear
10:35 PM 59.0 °F 50.0 °F 72% 29.99 in 10.0 mi Calm Calm - N/A   Clear
10:55 PM 59.0 °F 50.0 °F 72% 30.00 in 10.0 mi NE 4.6 mph - N/A   Clear
11:15 PM 59.0 °F 50.0 °F 72% 30.00 in 10.0 mi Calm Calm - N/A   Clear
11:35 PM 57.2 °F 50.0 °F 77% 30.00 in 10.0 mi Calm Calm - N/A   Clear
11:55 PM 55.4 °F 50.0 °F 82% 30.00 in 10.0 mi Calm Calm - N/A   Clear